Location: Unspecified
(64.9000°N, 0.0000°E)
Time: 09:48:58
(UTC+00:00)

Transit 2A Rocket - Pass Details

Date: 23 June 2019
Orbit: 588 x 915 km, 66.7° (Epoch: 19 July)

Event Time Altitude Azimuth Distance (km) Brightness Sun altitude
Rises 09:50:41 0° 185° (S) 3,539 8.9 43.4°
Reaches altitude 10° 09:53:36 10° 174° (S) 2,585 8.5 43.6°
Maximum altitude 09:58:29 27° 120° (ESE) 1,650 8.3 43.9°
Drops below altitude 10° 10:03:11 10° 65° (ENE) 2,477 7.9 44.3°
Sets 10:05:54 0° 54° (NE) 3,365 8.4 44.4°
